"Pseudo-MPEC" for ZLB2901

Created 2018 Jun 16 1:18:39 UT using Find_Orb

Click here for an explanation of pseudo-MPECs

 
 Astrometry: 
     ZLB2901  C2018 06 12.29334 16 15 39.60 +09 07 41.3          21.0 GUNEOCPG96
     ZLB2901  C2018 06 12.29858 16 15 39.25 +09 07 43.3          20.9 GUNEOCPG96
     ZLB2901  C2018 06 12.30903 16 15 38.60 +09 07 45.9          21.2 GUNEOCPG96
     ZLB2901  C2018 06 12.41897 16 15 32.31 +09 08 16.8          21.2 GUNEOCPI52
     ZLB2901  C2018 06 12.42296 16 15 32.11 +09 08 18.2          21.3 GUNEOCPI52
     ZLB2901  C2018 06 12.42654 16 15 31.89 +09 08 18.8          20.6 GUNEOCPI52
     ZLB2901  C2018 06 12.43012 16 15 31.67 +09 08 20.1          20.9 GUNEOCPI52
     ZLB2901  C2018 06 13.25827 16 14 45.82 +09 12 07.7          22.4 GUNEOCPI52
     ZLB2901  C2018 06 13.26267 16 14 45.59 +09 12 08.8          21.1 GUNEOCPI52
     ZLB2901  C2018 06 13.26707 16 14 45.28 +09 12 10.4          21.6 GUNEOCPI52
     ZLB2901  C2018 06 14FEAstrometryA^s!=Yfl;dNP5lZ9Sd]c)mKbF0?pVdkn8leq322wF51
     ZLB2901  C2018 06 14:f`P%::=WC0\_07pOredacted;-nRO,E:W2C/A`P[jUu+r-(\ihlF51
     ZLB2901  C2018 06 14^vgjtmv?.SQhP:c6DE[Ttf'ncK6/+N+MseemuG`K@HXK7/?ydEZ@F51
     ZLB2901  C2018 06 14FD!oa+qfZ9MR`g#Z6\+MkJMjhMK,GK+@l)co:@.ArH.u\D1NEOCPF51

Station data:
(F51) Pan-STARRS 1, Haleakala  (N20.707235 W156.255910)  US/Hawaii.
   Observers N. Primak, A. Schultz, S. Watters, J. Thiel, T. Goggia. Measurer
   PS1 Science Consortium. 1.8-m Ritchey-Chrétien + CCD.
(G96) Mt. Lemmon Survey  (N32.442754 W110.788720)  US/Arizona.  Observers B.
   M. Africano, E. J. Christensen, D. C. Fuls, A. R. Gibbs, A. D. Grauer, J.
   A. Johnson, R. A. Kowalski, S. M. Larson, G. J. Leonard, R. L. Seaman, F.
   C. Shelly. 1.5-m reflector + 10K CCD.
(I52) Steward Observatory, Mt. Lemmon Station  (N32.442547 W110.788920)
   US/Arizona.  Observers B. M. Africano, E. J. Christensen, D. C. Fuls, A.
   R. Gibbs, A. D. Grauer, J. A. Johnson, R. A. Kowalski, S. M. Larson, G. J.
   Leonard, R. L. Seaman, F. C. Shelly. 1.0-m reflector + CCD.

Orbital elements:  ZLB2901
   Perihelion 2019 Jul 29.658441 +/- 65.9 TT = 15:48:09 (JD 2458694.158441)
Epoch 2018 Jun 14.0 TT = JDT 2458283.5   Earth MOID: 0.7143   AutoNEOCP
M 237.98053 +/- 23                  (J2000 ecliptic)
n   0.29713126 +/- 0.0119           Peri.  190.15403 +/- 13
a   2.22418282 +/- 0.0594           Node   203.00826 +/- 2.7
e   0.2324212 +/- 0.0295            Incl.   25.74037 +/- 1.4
P   3.32                   H 17.6   G  0.15   U  9.8  
q 1.70723548 +/- 0.0245    Q 2.74113017 +/- 0.141
From 14 observations 2018 June 12-14; mean residual 0".25
Residuals in arcseconds: 
180612 G96  .67+  .21-    180612 I52  .04+  .20-    180614 F51  .02+  .08-    
180612 G96  .01-  .30+    180612 I52  .19-  .10+    180614 F51  .11+  .01-    
180612 G96  .67-  .07-    180613 I52  .07+  .12-    180614 F51  .03-  .03+    
180612 I52  .13-  .09-    180613 I52  .39+  .19-    180614 F51  .09-  .08+    
180612 I52  .28+  .20+    180613 I52  .47-  .24+    

Ephemerides (geocentric):
Date (UTC) HH   RA              Dec         delta   r     elong  mag " sig PA
---- -- -- --  -------------   -----------  ------ ------ -----  --- ---- ---
2018 06 16 01  16 12 14.987   +09 23 18.67  1.6932 2.5661 141.3 21.6  1.7 178
2018 06 16 02  16 12 12.782   +09 23 27.57  1.6933 2.5660 141.3 21.6  1.8 178
2018 06 16 03  16 12 10.580   +09 23 36.43  1.6935 2.5659 141.3 21.6  1.8 178
2018 06 16 04  16 12 08.378   +09 23 45.26  1.6937 2.5659 141.2 21.6  1.9 178
2018 06 16 05  16 12 06.179   +09 23 54.05  1.6938 2.5658 141.2 21.6  2.0 178
2018 06 16 06  16 12 03.981   +09 24 02.82  1.6940 2.5657 141.2 21.6  2.0 178
2018 06 16 07  16 12 01.785   +09 24 11.55  1.6941 2.5656 141.1 21.6  2.1 178
2018 06 16 08  16 11 59.590   +09 24 20.25  1.6943 2.5656 141.1 21.6  2.2 178
2018 06 16 09  16 11 57.398   +09 24 28.91  1.6944 2.5655 141.1 21.6  2.3 178
2018 06 16 10  16 11 55.207   +09 24 37.54  1.6946 2.5654 141.1 21.6  2.3 178
2018 06 16 11  16 11 53.017   +09 24 46.14  1.6947 2.5653 141.0 21.6  2.4 178
2018 06 16 12  16 11 50.829   +09 24 54.71  1.6949 2.5653 141.0 21.6  2.5 178
2018 06 16 13  16 11 48.643   +09 25 03.25  1.6951 2.5652 141.0 21.6  2.5 178
2018 06 16 14  16 11 46.459   +09 25 11.75  1.6952 2.5651 140.9 21.6  2.6 178
2018 06 16 15  16 11 44.277   +09 25 20.22  1.6954 2.5651 140.9 21.6  2.7 178
2018 06 16 16  16 11 42.096   +09 25 28.65  1.6955 2.5650 140.9 21.6  2.8 178
2018 06 16 17  16 11 39.917   +09 25 37.06  1.6957 2.5649 140.8 21.6  2.9 178
2018 06 16 18  16 11 37.739   +09 25 45.43  1.6959 2.5648 140.8 21.6  2.9 178
2018 06 16 19  16 11 35.563   +09 25 53.77  1.6960 2.5648 140.8 21.6  3.0 178
2018 06 16 20  16 11 33.389   +09 26 02.07  1.6962 2.5647 140.7 21.6  3.1 178
2018 06 16 21  16 11 31.217   +09 26 10.34  1.6963 2.5646 140.7 21.6  3.2 178
2018 06 16 22  16 11 29.047   +09 26 18.58  1.6965 2.5645 140.7 21.6  3.3 178
2018 06 16 23  16 11 26.878   +09 26 26.79  1.6967 2.5645 140.6 21.6  3.4 178
2018 06 17 00  16 11 24.711   +09 26 34.97  1.6968 2.5644 140.6 21.6  3.4 178
2018 06 17 01  16 11 22.545   +09 26 43.11  1.6970 2.5643 140.6 21.6  3.5 178
2018 06 17 02  16 11 20.382   +09 26 51.22  1.6971 2.5643 140.6 21.6  3.6 178
2018 06 17 03  16 11 18.220   +09 26 59.30  1.6973 2.5642 140.5 21.6  3.7 178
2018 06 17 04  16 11 16.060   +09 27 07.34  1.6975 2.5641 140.5 21.6  3.8 178
2018 06 17 05  16 11 13.902   +09 27 15.35  1.6976 2.5640 140.5 21.6  3.9 178
2018 06 17 06  16 11 11.745   +09 27 23.33  1.6978 2.5640 140.4 21.6  4.0 178
2018 06 17 07  16 11 09.590   +09 27 31.28  1.6980 2.5639 140.4 21.6  4.1 178
2018 06 17 08  16 11 07.437   +09 27 39.19  1.6981 2.5638 140.4 21.6  4.2 178
2018 06 17 09  16 11 05.286   +09 27 47.07  1.6983 2.5637 140.3 21.6  4.3 178
2018 06 17 10  16 11 03.137   +09 27 54.92  1.6985 2.5637 140.3 21.6  4.4 178
2018 06 17 11  16 11 00.989   +09 28 02.74  1.6986 2.5636 140.3 21.6  4.5 177
2018 06 17 12  16 10 58.843   +09 28 10.52  1.6988 2.5635 140.2 21.6  4.6 177
2018 06 17 13  16 10 56.699   +09 28 18.27  1.6990 2.5634 140.2 21.6  4.7 177
2018 06 17 14  16 10 54.557   +09 28 25.99  1.6991 2.5634 140.2 21.6  4.8 177
2018 06 17 15  16 10 52.416   +09 28 33.68  1.6993 2.5633 140.1 21.6  4.9 177
2018 06 17 16  16 10 50.277   +09 28 41.33  1.6995 2.5632 140.1 21.6  5.0 177
2018 06 17 17  16 10 48.140   +09 28 48.95  1.6996 2.5632 140.1 21.6  5.1 177
2018 06 17 18  16 10 46.005   +09 28 56.54  1.6998 2.5631 140.1 21.6  5.2 177
2018 06 17 19  16 10 43.872   +09 29 04.10  1.7000 2.5630 140.0 21.6  5.3 177
2018 06 17 20  16 10 41.740   +09 29 11.62  1.7001 2.5629 140.0 21.6  5.4 177
2018 06 17 21  16 10 39.611   +09 29 19.12  1.7003 2.5629 140.0 21.6  5.5 177
2018 06 17 22  16 10 37.483   +09 29 26.57  1.7005 2.5628 139.9 21.6  5.6 177
2018 06 17 23  16 10 35.357   +09 29 34.00  1.7006 2.5627 139.9 21.6  5.7 177
2018 06 18 00  16 10 33.232   +09 29 41.40  1.7008 2.5626 139.9 21.6  5.8 177